Temperature
21 21 20 22 27 30 30 30 30 29 29 28 27 27 28 28 27 26 22 21 21 21 20 20 20 20 19 19 19 19 19 19 19 19 19 19 19 19 19 18 18 18 18 18 18 18 18 18 18
21 20 21 25 29 29 29 30 29 29 28 27 27 27 27 27 25 23 22 21 21 20 20 20 20 20 19 19 19 19 19 19 19 19 19 19 19 19 18 18 18 18 18 18 18 18 18 18 18
21 21 24 29 29 29 29 30 29 28 27 27 27 27 26 26 24 22 21 21 21 20 20 20 20 20 19 19 19 19 19 19 19 19 19 19 19 19 18 18 18 18 18 18 18 18 18 18 18
21 23 26 29 29 30 30 29 29 29 28 27 27 27 25 23 22 22 21 21 21 20 20 19 20 19 19 19 19 19 19 19 19 19 19 19 18 18 18 18 18 18 18 18 18 18 18 18 18
22 26 29 29 29 30 30 29 28 29 28 27 27 27 25 22 22 21 21 21 21 20 20 19 19 19 19 19 19 19 19 19 19 19 18 18 18 18 18 18 18 18 18 18 18 18 18 17 17
25 28 29 29 29 29 29 28 28 29 28 27 27 27 25 22 21 21 21 21 20 20 19 19 19 19 19 19 19 19 19 19 18 18 18 18 18 18 18 18 18 18 18 18 18 17 17 17 17
27 29 29 29 29 29 29 28 28 29 29 28 27 27 25 22 21 21 21 20 20 20 19 19 19 19 19 18 18 18 18 18 18 18 18 18 18 18 18 18 18 18 18 17 17 17 17 17 17
26 29 29 29 29 29 29 28 28 28 28 26 26 27 26 23 21 21 20 20 20 19 19 19 19 18 18 18 18 18 18 18 18 18 18 18 18 18 18 17 18 18 17 17 17 17 17 17 17
25 28 29 29 29 29 28 28 28 27 27 26 26 26 25 22 21 21 20 20 20 19 19 19 19 18 18 18 18 18 18 18 18 18 18 17 17 17 17 17 17 17 17 17 17 17 17 17 17
26 28 29 29 29 29 28 28 27 27 27 27 26 24 22 21 21 21 21 21 20 19 19 19 19 18 18 18 17 17 17 17 17 17 17 17 17 17 17 17 17 17 17 17 17 17 17 17 16
27 28 29 29 28 28 28 28 27 28 28 28 27 25 23 22 21 22 21 21 20 20 19 19 18 18 18 17 17 17 17 17 17 17 17 17 16 16 16 16 16 16 16 16 16 16 16 16 16
27 28 27 28 27 27 27 28 27 27 28 27 26 25 23 22 22 22 22 21 20 19 19 18 18 18 18 17 17 17 17 17 17 17 17 17 16 16 16 16 16 16 16 16 16 16 16 16 16
27 27 27 27 26 27 27 27 27 27 26 25 25 24 23 23 22 22 21 21 20 19 19 18 18 18 17 17 17 17 17 17 17 17 17 17 16 16 16 16 16 16 16 16 16 16 16 16 16
27 27 27 27 27 27 27 27 27 27 26 25 25 24 24 23 23 22 21 20 20 19 18 18 18 18 18 18 18 17 17 17 17 17 17 17 16 16 16 16 16 16 16 16 16 15 15 15 15
26 27 27 28 27 27 27 27 28 27 26 25 25 24 24 23 22 22 21 20 19 19 18 18 18 18 18 17 17 17 17 17 17 17 17 17 16 16 16 16 16 16 15 15 15 15 15 15 15
27 27 27 28 28 27 27 28 29 27 26 26 25 24 23 23 22 21 21 20 20 19 18 18 18 18 18 17 17 17 17 17 16 17 17 17 16 16 16 16 15 15 15 15 15 15 15 15 15
27 27 27 28 28 28 27 28 28 26 26 26 25 24 24 23 22 21 21 20 19 19 19 18 18 18 18 17 17 17 17 16 16 16 16 16 16 16 16 16 15 15 15 15 15 15 15 15 15
27 27 27 27 28 27 27 28 28 26 26 26 25 24 24 23 22 21 20 20 19 19 19 18 18 18 17 17 17 16 16 16 16 16 16 16 16 16 16 16 16 15 15 15 15 15 15 15 15
27 27 27 28 28 27 27 27 28 27 26 26 25 25 24 23 22 21 20 19 19 19 19 18 18 18 17 17 16 16 16 16 16 16 16 16 16 16 16 15 15 15 15 15 15 15 15 15 15
26 26 27 27 27 27 27 27 27 27 26 26 25 24 24 23 22 21 20 19 19 19 18 18 18 17 17 17 17 16 16 16 16 16 16 16 16 16 16 15 15 15 15 15 15 15 15 15 15
26 26 27 27 27 27 27 27 27 27 26 25 25 24 24 23 22 21 20 19 19 18 18 18 18 17 17 17 16 16 16 16 15 16 16 16 16 15 15 15 15 15 15 15 15 15 15 15 15
26 27 27 26 26 27 27 26 27 27 26 26 25 24 23 22 22 21 20 19 19 18 18 18 18 17 17 17 16 16 16 16 16 16 16 15 15 15 15 15 15 15 15 15 15 15 14 14 15
27 27 27 26 26 26 27 27 27 27 26 26 25 24 23 22 22 21 20 19 19 18 18 17 17 17 17 16 16 16 16 16 16 15 15 15 15 15 15 15 15 15 15 14 14 14 14 14 14
27 26 26 26 26 25 26 26 26 27 26 26 25 23 22 22 21 20 20 19 18 18 17 17 17 17 16 16 16 16 16 16 15 15 15 15 15 15 15 14 14 15 14 14 14 14 14 14 14
26 25 25 25 25 26 26 26 26 26 26 25 25 23 22 21 21 20 19 19 18 17 17 17 16 16 16 16 16 16 16 15 15 15 15 15 15 15 14 14 14 14 14 14 14 14 14 14 14
25 25 24 24 25 26 26 26 26 26 25 24 23 22 21 21 20 20 19 18 18 17 17 17 16 16 16 16 16 15 15 15 15 15 15 15 15 15 14 14 14 14 14 14 14 14 14 14 14
25 25 26 25 26 25 26 26 25 25 24 24 23 22 21 20 19 19 18 18 17 17 16 16 16 16 16 15 15 15 15 15 14 14 14 14 14 14 14 14 14 14 14 14 14 14 14 14 14
26 26 25 25 24 24 25 25 25 24 24 24 23 22 21 19 19 18 18 17 17 16 16 16 16 15 15 15 15 15 15 14 14 14 14 14 14 14 14 14 14 14 14 14 14 13 14 14 13
24 25 25 25 25 24 24 25 25 24 23 23 23 22 20 19 18 18 17 17 16 16 16 15 15 15 15 15 15 15 14 14 14 14 14 14 14 14 14 14 14 14 14 14 13 13 13 13 13
25 25 24 24 24 24 24 24 24 23 23 22 22 21 20 19 18 17 17 16 16 16 16 15 15 15 15 15 15 15 14 14 14 14 14 14 14 14 14 14 13 13 13 13 13 13 13 13 13
Wind_Speed
10 8 6 5 6 3 1 3 2 2 2 3 3 2 3 4 4 4 5 7 7 9 12 14 12 11 11 11 12 12 12 12 12 12 11 11 11 10 10 10 10 9 9 9 9 9 9 8 8
6 5 6 5 5 2 2 2 2 3 3 1 1 0 1 3 4 4 5 7 8 9 11 12 13 11 11 11 12 12 12 12 12 12 11 11 11 10 9 9 10 9 9 9 9 8 8 8 8
6 6 5 4 3 2 2 2 2 2 1 0 1 1 1 3 4 4 6 9 9 9 10 12 12 11 10 11 12 12 12 11 11 11 11 11 10 9 9 9 10 9 8 8 7 7 7 7 7
5 5 5 5 3 1 2 2 1 1 1 1 1 2 2 3 3 5 8 10 9 9 10 13 12 10 10 10 11 11 11 11 11 11 10 10 9 8 8 9 9 8 8 7 7 6 6 7 7
6 5 6 5 3 1 1 2 3 3 2 1 2 1 3 4 5 8 9 10 9 9 9 12 11 10 10 9 9 10 10 10 10 10 10 9 9 8 8 8 8 8 7 7 7 6 7 6 7
5 5 7 5 3 1 1 2 4 4 2 2 2 2 3 6 7 8 10 9 9 9 9 12 12 10 9 8 8 9 9 9 9 9 9 9 8 8 7 7 7 8 8 7 7 6 6 6 6
7 6 7 6 4 2 1 2 4 4 3 2 2 2 5 7 7 8 9 9 8 8 9 10 11 11 9 8 7 8 8 9 9 9 9 9 8 7 7 7 7 7 7 7 7 7 6 6 6
6 6 8 7 6 3 1 1 2 5 2 1 3 3 4 8 9 9 9 9 8 8 8 8 8 9 9 9 8 7 8 8 8 9 9 9 9 8 8 9 7 7 7 7 7 7 7 7 7
6 8 8 6 6 3 1 3 2 3 3 3 4 1 3 11 12 11 9 9 8 7 7 7 7 7 7 8 9 9 9 9 9 10 9 10 9 8 9 7 7 7 7 7 7 7 6 6 7
7 9 9 5 6 5 4 5 4 4 6 5 5 4 7 11 12 12 11 10 10 9 8 7 7 7 7 6 8 7 7 8 7 7 8 7 6 6 6 9 8 7 7 7 7 7 7 6 5
7 9 8 7 7 7 7 7 6 7 7 5 5 6 9 11 11 11 11 10 9 9 8 7 7 6 6 5 6 5 5 6 7 7 7 6 6 6 6 6 7 7 8 6 7 7 4 3 3
9 10 10 9 7 8 9 8 8 10 7 4 4 6 10 11 11 11 10 9 9 9 9 8 7 7 7 6 5 5 5 5 4 6 7 6 4 4 4 4 4 5 4 3 3 3 3 3 3
11 10 10 10 10 10 10 11 10 10 7 5 5 8 10 11 10 10 9 9 9 9 9 8 8 7 6 5 5 5 5 5 5 5 6 5 4 4 4 3 3 3 4 4 3 3 3 3 3
8 10 11 11 10 9 11 11 10 9 7 8 8 9 10 10 10 10 10 9 9 9 9 8 8 8 7 6 5 5 5 5 5 5 6 5 4 3 4 4 3 3 3 2 2 3 3 2 2
9 10 11 10 10 8 9 12 12 9 8 9 9 9 10 10 10 10 10 10 10 10 9 9 9 8 8 7 7 5 5 5 5 5 6 6 5 4 4 4 4 3 4 4 3 2 2 3 3
10 11 10 7 7 7 9 11 7 7 9 10 9 9 9 9 10 10 10 10 10 10 10 9 8 9 9 7 6 5 5 5 5 5 5 6 5 5 4 4 3 4 3 3 3 2 2 2 2
11 10 9 6 6 7 9 10 5 6 9 10 9 9 9 9 10 9 10 10 10 10 10 10 9 9 9 8 7 6 5 4 4 5 5 5 6 6 5 4 3 4 3 3 3 2 3 3 2
9 11 10 9 5 8 10 11 8 8 9 10 9 9 9 9 9 9 9 9 10 10 10 10 10 9 9 8 6 5 6 5 5 4 4 5 5 6 5 4 4 5 4 3 3 3 3 3 3
11 12 12 9 6 8 11 12 9 8 9 9 9 9 9 8 8 8 8 9 9 10 11 11 11 10 9 7 7 6 6 6 5 5 5 5 5 5 5 3 4 4 4 4 4 4 4 4 3
13 14 13 8 6 8 10 11 9 8 9 9 9 9 9 8 8 8 8 8 9 10 11 11 11 11 10 8 6 6 6 6 5 5 5 5 5 5 5 4 4 4 4 5 5 5 4 3 4
15 14 12 10 9 10 11 11 8 7 7 8 8 8 8 8 8 9 9 9 10 11 11 10 11 11 10 9 7 5 5 5 5 5 5 5 5 5 4 4 4 4 5 5 5 6 6 4 4
14 11 11 11 12 9 8 9 7 7 8 8 8 8 7 7 7 7 9 10 11 11 11 11 11 11 10 9 8 8 7 6 5 5 4 5 6 5 5 5 5 4 4 4 5 5 5 5 5
12 8 10 12 13 12 11 11 7 8 8 8 7 7 6 6 7 8 8 9 10 10 10 11 11 10 10 10 9 8 7 6 5 4 4 4 5 5 5 5 5 5 5 5 5 5 6 5 6
9 9 10 12 12 13 10 10 8 6 6 6 6 5 5 6 6 7 7 8 8 9 9 10 11 10 10 9 9 9 8 7 6 5 5 5 4 4 6 6 5 6 5 5 6 6 7 6 6
10 10 8 9 10 10 6 9 6 2 3 4 5 6 5 5 6 7 7 8 8 9 9 10 10 10 10 10 9 9 8 8 7 7 6 5 4 4 5 6 6 5 6 6 6 6 6 6 7
11 12 10 8 9 8 8 8 4 3 2 3 3 4 5 5 5 6 7 7 8 8 9 9 10 9 9 9 9 8 8 6 6 6 5 6 5 5 5 6 6 6 6 6 6 6 6 6 6
11 13 11 11 11 10 7 6 5 4 3 3 4 4 5 5 5 6 6 7 7 8 8 8 8 8 8 8 7 7 7 6 6 6 6 6 5 5 5 5 6 6 6 6 6 5 6 5 6
12 10 9 10 10 10 9 9 5 4 4 3 4 4 5 5 5 5 6 6 6 7 7 7 7 8 7 7 6 6 7 6 6 5 6 6 6 5 5 5 6 6 5 6 6 6 5 6 6
12 12 10 10 11 10 10 5 0 1 2 3 3 3 4 5 5 5 5 6 6 7 7 7 7 7 7 6 6 6 6 6 6 5 5 6 5 6 6 6 6 5 6 6 6 6 6 6 5
11 12 11 11 10 10 10 5 2 1 1 1 2 3 4 4 5 5 5 5 6 6 6 6 6 6 6 6 5 6 6 6 6 6 5 5 5 6 6 5 5 5 5 5 6 6 6 6 6
Wind_Direction
188 197 222 234 238 225 91 89 54 48 42 33 15 346 358 8 2 48 93 126 135 140 139 149 152 152 152 152 148 146 144 141 139 137 134 132 129 128 129 131 125 121 121 119 119 123 125 126 129
188 204 230 242 260 220 112 82 69 38 43 41 82 308 12 58 55 89 121 132 143 142 143 147 149 154 153 152 149 148 146 145 143 142 139 137 133 132 133 133 127 124 123 122 119 118 124 127 131
197 230 254 252 264 293 62 66 53 62 87 238 128 41 30 68 89 109 121 144 149 145 144 136 148 153 154 153 152 151 149 148 147 146 143 139 136 134 132 131 127 126 126 125 122 118 122 130 138
216 227 238 250 244 330 349 13 331 209 186 186 189 125 102 74 101 115 133 151 150 146 143 139 152 151 151 154 156 153 151 149 149 149 146 141 139 136 133 133 130 129 131 129 124 123 125 131 136
238 249 238 236 237 289 315 311 265 249 223 191 208 151 125 110 114 131 144 154 151 145 141 141 151 153 153 151 152 154 153 152 151 151 150 146 142 139 135 136 138 136 136 137 131 129 127 132 134
233 245 246 241 229 248 294 279 249 249 219 193 200 175 123 126 137 142 147 155 150 146 143 139 151 154 154 151 147 150 155 155 154 156 155 151 148 143 141 143 144 142 137 133 130 127 127 133 131
256 252 254 258 258 241 322 296 257 255 229 207 204 195 137 143 143 146 150 152 149 150 147 147 155 157 157 151 149 150 148 153 158 159 160 157 156 154 152 147 144 141 139 136 131 128 122 117 117
261 258 246 245 254 252 8 265 279 268 254 177 213 220 152 149 148 150 152 151 150 154 151 150 153 154 161 159 151 151 153 154 157 159 161 164 166 164 162 160 143 138 137 136 133 128 123 119 118
244 249 247 248 257 264 269 265 261 267 229 214 219 266 106 144 155 158 157 159 159 160 159 158 155 157 163 157 151 161 164 164 169 164 167 181 176 167 170 144 141 141 139 136 133 129 130 138 140
233 249 254 268 275 280 275 275 269 242 226 215 194 165 144 157 168 172 174 174 172 171 170 164 164 166 167 159 159 172 170 166 176 163 171 175 165 166 157 142 150 150 149 149 145 149 164 189 156
237 254 269 267 272 274 272 266 251 250 244 232 215 181 169 176 182 185 185 182 177 173 172 171 170 171 172 169 170 171 169 164 172 166 169 164 167 165 163 158 163 166 173 165 158 179 179 163 129
243 254 266 271 273 266 266 265 251 248 255 258 230 189 183 187 193 194 191 184 177 175 175 172 170 173 179 173 171 177 174 170 170 164 175 167 166 166 163 169 165 171 166 157 173 163 142 142 142
241 256 265 265 262 262 261 256 258 252 246 232 210 195 193 195 198 196 193 187 182 179 178 177 176 172 176 175 182 178 179 175 166 166 166 171 169 172 164 166 174 175 162 169 173 158 147 160 162
253 261 265 263 256 250 251 252 245 241 226 217 207 202 200 201 201 195 192 191 188 182 180 175 176 174 176 181 188 183 178 174 171 163 160 168 161 154 167 169 164 166 166 148 158 153 162 178 163
255 256 256 247 243 240 245 244 233 227 215 218 214 206 205 205 202 200 196 193 189 183 180 177 176 176 180 185 187 180 176 169 167 158 160 167 165 153 166 169 170 163 153 156 167 155 181 191 184
240 245 250 230 227 226 237 251 222 207 214 221 217 206 204 202 205 199 196 195 189 183 179 179 178 177 179 182 181 172 168 164 164 160 157 165 168 164 173 176 173 157 175 178 178 191 196 201 208
228 245 254 249 216 230 238 260 239 219 223 224 218 210 206 201 203 198 194 193 190 184 179 178 179 179 179 177 173 167 159 159 163 164 162 162 175 177 182 183 168 176 186 197 206 192 216 213 218
245 253 256 260 233 243 251 258 250 226 229 227 219 213 208 204 202 195 190 188 187 183 178 178 179 178 175 174 173 171 164 163 168 165 161 166 173 177 186 183 178 189 192 199 206 205 221 234 231
267 264 265 264 258 256 258 261 253 235 229 224 217 211 208 205 194 185 184 185 184 181 178 179 180 176 175 176 180 178 174 171 169 173 172 177 182 181 193 197 183 200 198 204 206 210 204 222 221
252 258 262 259 253 261 266 264 252 235 228 219 213 209 206 200 190 186 187 186 184 181 180 178 180 177 180 178 178 180 176 174 170 173 175 185 189 195 194 201 206 201 202 202 208 213 219 218 221
246 251 259 267 272 252 259 253 230 211 209 207 211 211 206 201 198 192 189 189 186 183 181 178 178 177 181 177 174 167 171 173 172 177 180 187 193 197 203 201 214 210 213 205 210 212 218 220 218
247 247 255 262 264 260 246 261 231 208 208 208 207 206 206 201 201 197 191 188 187 182 179 175 173 175 176 177 180 180 185 188 184 185 182 189 196 199 200 206 212 219 222 209 216 214 225 225 226
247 256 254 257 257 263 246 255 239 201 215 211 207 208 205 200 194 189 189 187 184 179 174 173 170 172 176 184 184 190 194 191 184 184 178 191 193 202 205 205 209 216 225 220 225 217 226 230 236
244 248 247 244 245 246 244 252 247 213 220 213 201 203 202 193 183 177 172 172 175 175 172 170 169 171 177 184 189 195 192 190 187 188 188 197 199 203 206 211 213 219 225 220 223 221 224 235 241
226 237 237 231 228 240 220 243 244 230 223 228 210 197 193 186 177 168 164 164 166 169 171 171 168 172 177 185 189 192 193 192 195 199 198 207 208 209 209 216 217 223 224 222 224 222 230 231 234
218 233 242 249 245 245 218 237 223 184 192 208 204 186 181 176 171 166 163 165 165 166 169 168 169 172 177 184 188 190 194 198 199 204 211 211 218 218 211 216 220 221 220 220 221 224 224 227 233
219 228 251 262 261 261 238 222 212 190 187 190 182 172 177 175 168 165 160 163 162 163 168 168 165 168 173 178 180 187 193 199 199 200 210 213 216 216 208 214 220 217 215 220 221 225 224 225 228
237 232 235 244 249 254 249 236 238 209 204 198 196 183 169 166 164 159 158 160 160 160 163 166 167 171 172 175 181 181 184 191 199 204 206 213 214 217 215 214 218 217 215 214 217 221 219 221 227
217 221 230 242 249 256 258 252 286 210 224 221 209 188 169 165 162 157 155 156 155 154 157 165 167 169 175 180 182 184 185 188 195 200 208 212 216 217 222 221 222 218 218 217 218 225 220 224 228
228 231 229 241 246 250 260 264 75 137 194 212 208 168 160 161 159 151 147 150 153 151 153 158 166 174 179 180 181 186 187 190 194 197 205 209 213 219 221 222 223 224 221 218 221 228 227 228 229
Height
1515 1515 1516 1517 1510 1499 1498 1496 1495 1497 1498 1502 1503 1503 1502 1502 1504 1512 1514 1512 1513 1514 1514 1515 1516 1518 1519 1521 1522 1523 1524 1525 1526 1527 1528 1529 1530 1531 1532 1532 1533 1533 1534 1534 1535 1536 1536 1537 1538
1516 1516 1518 1514 1501 1502 1500 1495 1497 1499 1502 1504 1505 1505 1504 1505 1509 1512 1512 1512 1513 1515 1515 1516 1517 1519 1520 1521 1523 1524 1525 1526 1527 1528 1529 1530 1531 1532 1533 1533 1534 1534 1535 1535 1536 1537 1537 1538 1539
1516 1516 1516 1504 1499 1499 1499 1496 1497 1501 1504 1504 1504 1505 1506 1508 1511 1512 1513 1513 1514 1515 1517 1516 1518 1519 1521 1522 1523 1525 1526 1527 1528 1529 1530 1531 1532 1533 1534 1534 1535 1535 1536 1536 1537 1537 1537 1538 1539
1518 1518 1513 1503 1499 1496 1496 1497 1500 1501 1503 1504 1504 1505 1508 1511 1512 1513 1512 1514 1515 1517 1518 1517 1518 1520 1521 1523 1524 1525 1526 1527 1529 1530 1531 1532 1533 1534 1535 1535 1536 1536 1537 1537 1537 1538 1538 1538 1540
1518 1513 1503 1500 1497 1496 1496 1499 1500 1499 1501 1503 1504 1505 1508 1511 1511 1512 1513 1514 1516 1517 1518 1518 1519 1521 1522 1523 1525 1526 1527 1528 1529 1530 1531 1532 1534 1535 1535 1536 1537 1537 1538 1538 1538 1538 1538 1539 1540
1515 1507 1502 1500 1496 1496 1497 1499 1500 1499 1500 1503 1504 1504 1508 1511 1511 1512 1513 1515 1516 1518 1519 1519 1520 1521 1523 1524 1525 1526 1528 1529 1529 1531 1532 1533 1534 1535 1536 1537 1537 1538 1539 1539 1539 1539 1540 1540 1541
1512 1503 1499 1496 1497 1496 1498 1500 1499 1498 1499 1502 1504 1504 1507 1510 1511 1512 1513 1515 1516 1518 1519 1520 1521 1522 1523 1524 1525 1527 1528 1529 1530 1531 1532 1534 1535 1536 1537 1538 1538 1539 1539 1540 1540 1540 1541 1541 1541
1511 1504 1498 1495 1497 1496 1497 1499 1500 1499 1499 1503 1504 1503 1505 1509 1510 1511 1513 1515 1516 1518 1519 1520 1522 1523 1524 1525 1525 1527 1528 1529 1530 1532 1533 1534 1535 1536 1537 1538 1538 1539 1539 1540 1540 1541 1541 1541 1542
1512 1505 1497 1494 1495 1494 1497 1498 1500 1501 1501 1502 1503 1504 1506 1507 1509 1511 1513 1514 1516 1517 1518 1520 1521 1523 1524 1526 1525 1526 1528 1529 1530 1532 1532 1534 1536 1537 1537 1538 1538 1539 1539 1539 1540 1541 1542 1542 1542
1508 1500 1494 1492 1493 1494 1496 1498 1498 1499 1498 1500 1502 1504 1505 1506 1508 1510 1511 1513 1515 1516 1518 1519 1520 1522 1524 1525 1525 1527 1528 1529 1531 1532 1533 1534 1535 1536 1538 1537 1538 1539 1539 1539 1540 1541 1542 1543 1544
1503 1498 1493 1494 1495 1497 1496 1496 1497 1496 1494 1496 1499 1502 1504 1506 1508 1509 1510 1512 1513 1515 1516 1518 1519 1521 1523 1524 1525 1526 1528 1528 1530 1530 1532 1533 1534 1536 1537 1538 1538 1539 1539 1540 1540 1541 1543 1544 1544
1500 1497 1497 1495 1496 1496 1495 1495 1495 1495 1495 1497 1498 1500 1503 1504 1506 1507 1509 1511 1512 1514 1515 1516 1517 1519 1521 1522 1524 1525 1526 1527 1528 1528 1530 1532 1534 1535 1536 1536 1538 1539 1540 1540 1541 1542 1543 1543 1544
1498 1496 1496 1496 1495 1495 1494 1494 1493 1493 1495 1496 1498 1499 1500 1502 1504 1506 1508 1510 1511 1512 1514 1515 1516 1517 1518 1520 1522 1523 1525 1526 1527 1528 1529 1530 1533 1534 1534 1535 1536 1538 1539 1540 1540 1541 1542 1543 1544
1495 1495 1494 1493 1492 1492 1492 1490 1491 1490 1493 1494 1495 1497 1498 1500 1502 1504 1506 1507 1509 1510 1512 1513 1514 1515 1516 1518 1519 1521 1523 1524 1526 1527 1528 1529 1532 1533 1534 1534 1535 1537 1538 1539 1539 1540 1541 1542 1543
1496 1493 1490 1487 1487 1488 1489 1486 1484 1487 1490 1491 1492 1494 1496 1498 1500 1502 1503 1505 1506 1508 1509 1510 1512 1513 1514 1516 1518 1519 1521 1523 1525 1526 1527 1528 1530 1531 1533 1534 1535 1535 1537 1538 1538 1539 1541 1542 1543
1491 1488 1486 1481 1483 1485 1488 1483 1478 1484 1487 1488 1490 1492 1494 1496 1498 1499 1501 1503 1504 1506 1507 1508 1510 1512 1513 1514 1516 1518 1520 1522 1524 1525 1526 1527 1528 1529 1531 1533 1534 1535 1536 1537 1538 1539 1540 1541 1542
1485 1485 1482 1479 1480 1481 1482 1479 1477 1481 1484 1485 1487 1489 1491 1493 1496 1497 1499 1500 1502 1503 1505 1506 1508 1510 1511 1513 1514 1517 1518 1521 1523 1524 1525 1526 1527 1528 1530 1531 1532 1533 1535 1536 1537 1538 1540 1540 1541
1483 1480 1479 1479 1475 1478 1478 1476 1475 1479 1480 1482 1484 1486 1489 1490 1493 1494 1496 1498 1499 1501 1502 1504 1506 1508 1510 1512 1513 1515 1517 1519 1521 1522 1524 1524 1526 1527 1529 1530 1531 1533 1534 1535 1536 1537 1538 1539 1539
1479 1479 1478 1474 1472 1476 1475 1473 1472 1474 1477 1478 1480 1483 1485 1488 1491 1492 1494 1495 1497 1498 1500 1501 1503 1505 1507 1510 1512 1514 1516 1517 1519 1521 1522 1524 1525 1526 1528 1529 1530 1531 1532 1533 1534 1535 1536 1537 1538
1480 1480 1476 1472 1471 1474 1472 1470 1468 1471 1473 1475 1478 1480 1483 1486 1488 1490 1491 1493 1494 1495 1497 1499 1501 1503 1506 1508 1510 1512 1515 1516 1518 1520 1521 1522 1524 1525 1526 1527 1528 1529 1530 1531 1532 1533 1535 1535 1536
1477 1476 1474 1474 1471 1470 1472 1469 1466 1467 1471 1474 1476 1478 1480 1483 1485 1487 1489 1490 1492 1493 1495 1498 1499 1502 1504 1507 1509 1511 1513 1515 1517 1518 1519 1521 1522 1523 1524 1525 1527 1528 1529 1530 1530 1532 1532 1533 1534
1475 1469 1471 1473 1474 1469 1469 1473 1464 1463 1467 1470 1473 1475 1478 1480 1482 1484 1486 1487 1489 1491 1493 1495 1498 1500 1502 1505 1507 1509 1511 1513 1514 1516 1518 1519 1520 1521 1522 1523 1524 1525 1527 1528 1528 1530 1530 1531 1532
1467 1466 1468 1469 1470 1470 1464 1468 1461 1460 1464 1466 1469 1472 1475 1477 1479 1481 1483 1485 1487 1490 1492 1494 1496 1498 1501 1503 1505 1507 1510 1511 1513 1514 1516 1517 1518 1519 1520 1521 1522 1523 1524 1525 1526 1527 1528 1529 1530
1465 1468 1467 1466 1465 1474 1464 1466 1463 1456 1460 1463 1467 1470 1473 1475 1477 1479 1481 1483 1486 1488 1490 1492 1494 1496 1499 1501 1503 1505 1506 1509 1511 1512 1514 1515 1516 1517 1518 1519 1520 1520 1521 1522 1523 1524 1525 1526 1527
1466 1471 1475 1475 1472 1467 1458 1464 1462 1455 1458 1462 1465 1468 1472 1473 1475 1477 1479 1481 1483 1486 1488 1490 1492 1494 1496 1498 1500 1502 1504 1506 1507 1509 1511 1513 1514 1515 1515 1516 1517 1518 1518 1519 1520 1521 1522 1523 1523
1463 1466 1474 1478 1471 1461 1458 1461 1456 1455 1459 1463 1465 1467 1470 1472 1474 1476 1478 1480 1482 1484 1486 1488 1490 1492 1494 1496 1498 1500 1501 1504 1505 1507 1509 1510 1511 1512 1513 1514 1514 1515 1516 1517 1517 1518 1519 1520 1520
1460 1460 1455 1461 1460 1463 1456 1455 1454 1455 1458 1461 1463 1466 1469 1471 1473 1475 1477 1479 1481 1483 1485 1487 1488 1490 1492 1494 1495 1497 1498 1500 1502 1504 1506 1508 1508 1510 1511 1511 1512 1513 1513 1514 1515 1516 1516 1517 1517
1453 1453 1459 1462 1470 1471 1461 1457 1457 1455 1457 1459 1462 1464 1468 1471 1473 1474 1476 1478 1480 1482 1483 1485 1487 1489 1491 1492 1493 1495 1496 1497 1499 1501 1503 1504 1505 1507 1508 1508 1509 1510 1510 1511 1512 1513 1513 1514 1514
1455 1456 1456 1454 1454 1464 1467 1460 1450 1454 1456 1458 1461 1463 1466 1469 1472 1474 1476 1477 1479 1481 1482 1484 1486 1487 1489 1490 1491 1493 1494 1495 1497 1498 1500 1501 1503 1504 1505 1506 1506 1507 1508 1508 1509 1510 1510 1511 1512
1448 1450 1454 1461 1458 1454 1457 1461 1451 1454 1457 1459 1461 1463 1466 1469 1471 1473 1475 1476 1478 1479 1481 1483 1484 1486 1487 1488 1489 1490 1491 1493 1494 1496 1497 1499 1500 1501 1502 1503 1504 1504 1505 1506 1506 1507 1507 1508 1508